TimeAKDT,TemperatureF,Dew PointF,Humidity,Sea Level PressureIn,VisibilityMPH,Wind Direction,Wind SpeedMPH,Gust SpeedMPH,PrecipitationIn,Events,Conditions,WindDirDegrees,DateUTC
12:53 AM,37.0,17.1,44,29.94,10.0,NNE,11.5,-,N/A,,Overcast,30,2012-10-20 08:53:00
1:53 AM,37.0,17.1,44,29.94,10.0,NNE,15.0,-,N/A,,Overcast,30,2012-10-20 09:53:00
2:53 AM,37.0,17.1,44,29.95,10.0,NNE,11.5,-,N/A,,Mostly Cloudy,30,2012-10-20 10:53:00
3:53 AM,37.0,17.1,44,29.95,10.0,NE,12.7,-,N/A,,Mostly Cloudy,40,2012-10-20 11:53:00
4:53 AM,37.0,19.0,48,29.96,10.0,NNE,11.5,20.7,N/A,,Overcast,30,2012-10-20 12:53:00
5:53 AM,37.0,19.0,48,29.97,10.0,NNE,16.1,23.0,N/A,,Overcast,30,2012-10-20 13:53:00
6:53 AM,37.0,18.0,46,29.98,10.0,NNE,12.7,24.2,N/A,,Overcast,30,2012-10-20 14:53:00
7:53 AM,37.0,17.1,44,29.99,10.0,NE,12.7,25.3,N/A,,Overcast,40,2012-10-20 15:53:00
8:53 AM,37.0,17.1,44,30.01,10.0,NE,16.1,24.2,N/A,,Overcast,40,2012-10-20 16:53:00
9:53 AM,36.0,18.0,48,30.03,10.0,NNE,12.7,24.2,N/A,,Overcast,30,2012-10-20 17:53:00
10:53 AM,36.0,17.1,46,30.04,10.0,NE,17.3,26.5,N/A,,Overcast,40,2012-10-20 18:53:00
11:53 AM,36.0,18.0,48,30.07,10.0,NNE,15.0,28.8,N/A,,Mostly Cloudy,30,2012-10-20 19:53:00
12:53 PM,36.0,18.0,48,30.08,10.0,NE,15.0,18.4,N/A,,Scattered Clouds,40,2012-10-20 20:53:00
1:53 PM,36.0,17.1,46,30.09,10.0,NNE,15.0,27.6,N/A,,Clear,30,2012-10-20 21:53:00
2:53 PM,36.0,16.0,44,30.11,10.0,NNE,12.7,23.0,N/A,,Clear,30,2012-10-20 22:53:00
3:53 PM,36.0,15.1,43,30.12,10.0,NNE,13.8,24.2,N/A,,Overcast,30,2012-10-20 23:53:00
4:53 PM,36.0,15.1,43,30.14,10.0,NNE,12.7,29.9,N/A,,Overcast,30,2012-10-21 00:53:00
5:53 PM,35.1,15.1,44,30.16,10.0,NNE,18.4,25.3,N/A,,Overcast,30,2012-10-21 01:53:00
6:53 PM,34.0,16.0,48,30.18,10.0,NNE,13.8,24.2,N/A,,Overcast,30,2012-10-21 02:53:00
7:53 PM,34.0,16.0,48,30.20,10.0,NNE,17.3,26.5,N/A,,Overcast,30,2012-10-21 03:53:00
8:53 PM,33.1,16.0,50,30.22,10.0,NNE,16.1,-,N/A,,Overcast,30,2012-10-21 04:53:00
9:53 PM,33.1,16.0,50,30.25,10.0,NNE,10.4,18.4,N/A,,Overcast,30,2012-10-21 05:53:00
10:53 PM,33.1,16.0,50,30.27,10.0,NNE,11.5,-,N/A,,Overcast,30,2012-10-21 06:53:00
11:53 PM,33.1,16.0,50,30.27,10.0,NE,13.8,20.7,N/A,,Overcast,40,2012-10-21 07:53:00